This demonstration page uses our WeatherBlox Daily Observations layout. Learn more.

Left ArrowRight Arrow

Hourly Observations for July 18, 2016

Temp ( °F °C ) Dew Point ( °F °C ) Humidity (%) Winds ( mph kmh ) Pressure ( in mb ) Visibility ( mi km ) Precip ( " mm )
12:48 am 00:48 Clear 75 24 61 16 61 61 E 16 26 29.97 1015 10 16 0.00 0.00
12:51 am 00:51 Clear 75 23.9 61 16.1 62 62 E 16 26 29.96 1015 10 16 0.00 0.00
1:51 am 01:51 Mostly Clear 77 25 60 15.6 56 56 ESE 17 28 29.96 1014 10 16 0.00 0.00
2:51 am 02:51 Mostly Cloudy with Light Rain 75 23.9 60 15.6 60 60 SSW 13 20 29.94 1014 10 16 0.00 0.03
3:09 am 03:09 Mostly Cloudy with Nearby Thunderstorms 73 22.8 62 16.7 69 69 ESE 16 26 29.97 1015 10 16 0.00 0.03
3:24 am 03:24 Mostly Cloudy with Light Rain 74 23.3 60 15.6 62 62 Calm 29.94 1014 10 16 0.00 0.03
3:51 am 03:51 Mostly Clear 72 22.2 63 17.2 73 73 E 8 13 29.95 1014 10 16 0.00 0.03
4:51 am 04:51 Clear 73 22.8 61 16.1 66 66 ENE 7 11 29.93 1014 10 16 0.00 0.00
5:51 am 05:51 Sunny 70 21.1 62 16.7 76 76 SW 12 19 29.96 1015 10 16 0.00 0.00
6:51 am 06:51 Sunny 75 23.9 62 16.7 64 64 E 5 7 29.98 1015 10 16 0.00 0.00
7:51 am 07:51 Sunny 77 25 62 16.7 60 60 SSE 7 11 29.99 1016 10 16 0.00 0.00
8:51 am 08:51 Sunny 80 26.7 61 16.1 52 52 SSW 3 6 29.99 1016 10 16 0.00 0.00
9:51 am 09:51 Sunny 84 28.9 59 15 43 43 SW 5 7 29.97 1015 10 16 0.00 0.00
10:51 am 10:51 Sunny 88 31.1 58 14.4 36 36 VRB 3 6 29.96 1015 10 16 0.00 0.00
11:51 am 11:51 Sunny 91 32.8 57 13.9 32 32 WSW 3 6 29.93 1014 10 16 0.00 0.00
12:51 pm 12:51 Sunny 95 35 52 11.1 23 23 VRB 3 6 29.91 1013 10 16 0.00 0.00
1:51 pm 13:51 Sunny 96 35.6 53 11.7 23 23 E 3 6 29.86 1011 10 16 0.00 0.00
2:51 pm 14:51 Sunny 97 36.1 52 11.1 22 22 VRB 5 7 29.83 1010 10 16 0.00 0.00
3:51 pm 15:51 Sunny 99 37.2 51 10.6 20 20 VRB 3 6 29.81 1009 10 16 0.00 0.00
4:51 pm 16:51 Sunny 99 37.2 51 10.6 20 20 Calm 29.79 1009 10 16 0.00 0.00
5:51 pm 17:51 Sunny 99 37.2 52 11.1 21 21 undefined N/A 29.79 1009 10 16 0.00 0.00
6:51 pm 18:51 Mostly Cloudy 89 31.7 57 13.9 34 34 WNW 30 48 29.84 1010 10 16 0.00 0.00
7:51 pm 19:51 Clear 86 30 58 14.4 39 39 NNW 21 33 29.87 1011 10 16 0.00 0.00
8:51 pm 20:51 Clear 85 29.4 58 14.4 40 40 NW 16 26 29.88 1012 10 16 0.00 0.00
9:51 pm 21:51 Clear 83 28.3 59 15 44 44 WNW 14 22 29.92 1013 10 16 0.00 0.00
10:51 pm 22:51 Clear 83 28.3 58 14.4 43 43 NW 13 20 29.93 1014 10 16 0.00 0.00
11:51 pm 23:51 Mostly Cloudy 82 27.8 58 14.4 44 44 SSW 10 17 29.94 1014 10 16 0.00 0.00

Powered by AerisWeather